Location: *
(32.8140°S, 174.6161°E)
Time: 11:20:21
(UTC+00:00)

Cosmos 2360 Rocket - Pass Details

Date: 10 December 2019
Orbit: 833 x 846 km, 71.0° (Epoch: 26 January)

Event Time Altitude Azimuth Distance (km) Brightness Sun altitude
Exits shadow 14:33:01 15° 41° (NE) 2,150 4.2 -25.2°
Maximum altitude 14:35:59 21° 79° (E) 1,786 4.1 -24.8°
Drops below altitude 10° 14:40:09 10° 127° (SE) 2,469 5.6 -24.3°
Sets 14:43:08 0° 142° (SE) 3,410 6.8 -23.9°
